Погода в Топике

США     39°00′59″N   95°42′17″W
темп.,
°C
ветер,
м/с
пор.,
м/с
влажн.,
%
обл.,
%
осадки,
мм/ч
давл.,
гПа
погр.,
м
19 апреля, пн
пн1901:00+7юз46610 0.0 101679
04:00+6юз410695 0.0 1015146
07:00+5сз33760 0.0 101656
10:00+9с777468 0.0 1017772
13:00+9с6663100 0.0 10191060
16:00+10с7654100 0.0 10181337
19:00+5с8964100 0.0 1020788
22:00+1ссв61279100 0.0 1022612
20 апреля, вт
вт2001:00+2с6975100 0.0 1022661
04:000с51098100 2.4 1022600
07:000с51099100 7.8 1024582
10:00+1с4997100 1.4 1025858
13:00+4ссз577999 1.8 10241482
16:00+6ссз6959100 0.3 10232061
19:00+6сз35685 0.4 1023214
22:00+2зюз33775 0.0 102427
21 апреля, ср
ср2101:00+1з338221 0.0 102442
04:00−1зюз49881 0.0 1024166
07:00−1зсз511855 0.0 1025226
10:00+5сз711685 0.0 10261032
13:00+9сз71045100 0.0 10252364
16:00+10сз71040100 0.0 10232487
19:00+9сз465498 0.0 1023245
22:00+4св226494 0.0 102411
22 апреля, чт
чт2201:00+2в336778 0.0 102524
04:00+1ююв22686 0.0 102518
07:00+1ю337392 0.0 102641
10:00+8ю3555100 0.0 1025467
13:00+11ю565297 0.0 10231361
16:00+13ю6748100 0.0 10201975
19:00+8ю5886100 0.6 1020902
22:00+7ююв51093100 1.8 1021545
23 апреля, пт
пт2301:00+6ююв61294100 1.9 1019699
04:00+7ю61393100 0.0 1017606
07:00+7ююв61294100 0.2 1015550
10:00+7ю51295100 0.6 1014549
13:00+8ююв4995100 1.1 1013525
16:00+9ююв3796100 0.1 1011423
19:00+9юв2598100 0.1 1010299
22:00+9вюв2398100 0.0 1011103